Stations météo

réclame
Mon MeteoGroup
Mildenhall Royal Air Force Bas, Grande-Bretagne (3577): Température de l'air & dewpoint: 08.12.2019 16:00:00 - 14.12.2019 16:00:00 (GMT)Mildenhall Royal Air Force Bas, Grande-Bretagne (3577): Vitesse du vent & gusts: 08.12.2019 16:00:00 - 14.12.2019 16:00:00 (GMT)Mildenhall Royal Air Force Bas, Grande-Bretagne (3577): Direction du vent: 08.12.2019 16:00:00 - 14.12.2019 16:00:00 (GMT)Mildenhall Royal Air Force Bas, Grande-Bretagne (3577): reduced air pressure: 08.12.2019 16:00:00 - 14.12.2019 16:00:00 (GMT)Mildenhall Royal Air Force Bas, Grande-Bretagne (3577): visibility: 08.12.2019 16:00:00 - 14.12.2019 16:00:00 (GMT)Mildenhall Royal Air Force Bas, Grande-Bretagne (3577): Quantités de précipitations: 08.12.2019 16:00:00 - 14.12.2019 16:00:00 (GMT)
Date & Time tt [°C] td [°C] ff [km/h] ff [knt] fx [km/h] fx [knt] dd ppp [hPa] vv [km] rr [mm]
14.12.2019 16:00:00 4,8 0,7 26 14 48 26 WSW 991,5 10 -
14.12.2019 15:00:00 5,8 0,8 37 20 57 31 W 990,5 10 -
14.12.2019 14:00:00 6,4 2,5 42 23 61 33 W 989,5 10 -
14.12.2019 13:00:00 5,7 5,7 29 16 52 28 WSW 988,5 10 -
14.12.2019 12:00:00 4,6 4,6 16 9 - - WSW 988,5 10 1,0
14.12.2019 11:00:00 5,5 4,0 24 13 - - W 987,8 10 0,0
14.12.2019 10:00:00 5,6 1,9 24 13 - - SW 987,1 10 -
14.12.2019 09:00:00 5,0 2,0 29 16 - - SW 986,8 10 -
14.12.2019 08:00:00 4,1 2,4 28 15 50 27 WSW 986,1 10 -
14.12.2019 07:00:00 4,1 3,1 34 18 - - WSW 985,4 10 -
14.12.2019 06:00:00 4,7 3,5 29 16 48 26 W 984,4 10 -
14.12.2019 05:00:00 4,5 4,2 24 13 - - WSW 983,0 10 -
14.12.2019 04:00:00 4,1 4,0 18 10 - - WSW 982,0 10 -
14.12.2019 03:00:00 4,5 4,1 22 12 - - WSW 981,7 10 -
14.12.2019 02:00:00 4,7 4,1 16 9 - - WSW - 10 -
14.12.2019 01:00:00 5,5 4,8 18 10 - - WSW 980,0 10 -
14.12.2019 00:00:00 5,7 4,7 18 10 - - WSW 979,3 10 -
13.12.2019 23:00:00 5,5 4,3 16 9 - - SW - 10 -
13.12.2019 22:00:00 5,9 3,4 22 12 - - SW - 10 -
13.12.2019 21:00:00 5,7 2,9 22 12 - - SW 980,0 10 -
13.12.2019 20:00:00 5,6 2,4 16 9 - - SW 980,7 10 -
13.12.2019 19:00:00 5,9 2,5 22 12 - - SW 981,4 10 -
13.12.2019 18:00:00 6,4 3,0 18 10 - - WSW - 10 -
13.12.2019 17:00:00 7,3 3,9 24 13 - - WSW - 10 -
13.12.2019 16:00:00 7,6 4,4 24 13 - - WSW - 10 -
13.12.2019 15:00:00 7,6 4,9 31 17 50 27 W - 10 -
13.12.2019 14:00:00 7,9 5,7 28 15 48 26 W - 10 -
13.12.2019 13:00:00 7,7 6,6 34 18 - - W - 10 -
13.12.2019 12:00:00 7,2 6,8 24 13 - - W - 10 -
13.12.2019 11:00:00 7,2 7,2 29 16 - - W - 10 -
13.12.2019 10:00:00 6,4 6,4 24 13 - - W 977,6 10 -
13.12.2019 09:00:00 5,7 5,7 22 12 - - W 976,3 10 -
13.12.2019 08:00:00 5,4 5,4 18 10 - - W 974,9 10 0,0
13.12.2019 07:00:00 5,6 5,6 21 11 - - W 973,6 10 -
13.12.2019 06:00:00 6,0 5,0 18 10 - - WNW 972,1 10 -
13.12.2019 05:00:00 6,1 5,5 16 9 - - W 970,5 10 0,0
13.12.2019 04:00:00 7,0 6,0 15 8 - - W 970,2 10 -
13.12.2019 03:00:00 7,0 6,0 11 6 - - WSW 969,9 10 -
13.12.2019 02:00:00 6,6 5,7 9 5 - - SSW 969,5 10 0,0
13.12.2019 01:00:00 6,2 5,3 5 3 - - S 969,9 10 -
13.12.2019 00:00:00 7,2 6,0 11 6 - - S 970,9 10 -
12.12.2019 23:00:00 7,2 7,2 13 7 - - SW 971,9 10 -
12.12.2019 22:00:00 7,0 7,0 16 9 - - SW 972,9 10 -
12.12.2019 21:00:00 7,6 7,6 15 8 - - SW 973,9 10 1,0
12.12.2019 20:00:00 7,5 7,5 16 9 - - SSW 974,9 10 2,5
12.12.2019 19:00:00 7,4 7,4 29 16 - - SSE 975,6 10 1,5
12.12.2019 18:00:00 7,7 7,7 26 14 - - S 977,6 10 0,8
12.12.2019 17:00:00 7,7 7,7 29 16 - - SSE 978,7 10 0,5
12.12.2019 16:00:00 7,7 7,7 28 15 - - SSE 980,0 10 0,0
12.12.2019 15:00:00 7,5 7,5 28 15 - - SSE 981,7 10 0,0
12.12.2019 14:00:00 6,9 6,9 31 17 52 28 SSE 983,7 10 0,0
12.12.2019 13:00:00 6,6 6,6 29 16 52 28 SSE 985,4 10 0,0
12.12.2019 12:00:00 5,4 5,4 28 15 - - SSE 987,8 10 1,0
12.12.2019 11:00:00 4,2 4,2 15 8 - - SE 991,2 10 0,0
12.12.2019 10:00:00 3,7 3,7 21 11 - - SSE 993,2 10 0,0
12.12.2019 09:00:00 2,4 2,4 15 8 - - SSE 994,6 10 -
12.12.2019 08:00:00 1,8 1,8 15 8 - - S 995,9 10 -
12.12.2019 07:00:00 1,2 1,2 15 8 - - S 997,0 10 -
12.12.2019 06:00:00 0,3 0,3 11 6 - - SSE 998,0 10 -
12.12.2019 05:00:00 0,8 0,8 13 7 - - S 999,0 10 -
12.12.2019 04:00:00 0,8 0,8 13 7 - - SSW 1000,0 10 -
12.12.2019 03:00:00 0,5 0,5 15 8 - - SW 1000,7 10 -
12.12.2019 02:00:00 0,4 0,4 13 7 - - SW 1001,0 10 -
12.12.2019 01:00:00 1,1 1,1 15 8 - - WSW 1001,3 10 -
12.12.2019 00:00:00 1,4 1,4 13 7 - - WSW 1001,3 10 -
11.12.2019 23:00:00 1,6 1,6 13 7 - - SW 1001,7 10 -
11.12.2019 22:00:00 2,0 2,0 13 7 - - WSW 1001,4 10 -
11.12.2019 21:00:00 2,7 2,7 11 6 - - W 1001,4 10 -
11.12.2019 20:00:00 3,5 3,5 13 7 - - W 1001,0 10 -
11.12.2019 19:00:00 5,6 5,6 21 11 - - WSW 1000,3 10 -
11.12.2019 18:00:00 5,8 5,8 13 7 - - SW 1000,0 10 0,3
11.12.2019 17:00:00 5,8 5,2 13 7 - - SSW 999,7 10 -
11.12.2019 16:00:00 6,6 5,9 9 5 - - S 999,6 10 -
11.12.2019 15:00:00 6,6 5,9 11 6 - - SSE 1000,0 10 -
11.12.2019 14:00:00 8,1 5,7 18 10 - - SSW 1000,7 10 -
11.12.2019 13:00:00 7,8 5,8 15 8 - - SSW 1001,3 10 -
11.12.2019 12:00:00 7,7 5,8 16 9 - - SSW 1002,7 10 -
11.12.2019 11:00:00 6,5 5,8 18 10 - - SSW 1003,7 10 -
11.12.2019 10:00:00 4,5 4,5 13 7 - - SSW 1004,7 10 -
11.12.2019 09:00:00 2,8 2,8 11 6 - - S 1005,1 10 -
11.12.2019 08:00:00 2,7 2,7 15 8 - - S 1005,4 10 -
11.12.2019 07:00:00 - - - - - - - - - -
11.12.2019 06:00:00 - - - - - - - - - -
11.12.2019 05:00:00 3,0 3,0 15 8 - - SW 1006,4 10 -
11.12.2019 04:00:00 4,1 4,0 15 8 - - WSW 1006,4 10 -
11.12.2019 03:00:00 4,9 4,3 15 8 - - WSW 1006,8 10 -
11.12.2019 02:00:00 5,4 4,8 21 11 - - SW 1006,4 10 -
11.12.2019 01:00:00 6,3 4,8 16 9 - - WSW 1006,1 10 -
11.12.2019 00:00:00 6,9 6,0 21 11 - - WSW 1005,7 10 -
10.12.2019 23:00:00 8,4 8,3 26 14 - - WSW 1005,1 10 -
10.12.2019 22:00:00 9,0 9,0 26 14 - - WSW 1003,7 10 0,3
10.12.2019 21:00:00 9,3 9,3 35 19 68 37 W 1003,0 10 2,3
10.12.2019 20:00:00 11,2 11,2 35 19 65 35 SSW 1000,3 10 0,0
10.12.2019 19:00:00 11,4 11,4 44 24 72 39 SSW 1000,3 10 -
10.12.2019 18:00:00 11,5 11,0 42 23 65 35 SSW 1001,3 10 -
10.12.2019 17:00:00 10,6 10,6 41 22 70 38 SSW - 10 -
10.12.2019 16:00:00 10,3 10,3 39 21 63 34 SSW 1004,4 10 -
10.12.2019 15:00:00 9,9 9,9 42 23 61 33 S 1005,4 10 -
10.12.2019 14:00:00 9,4 9,4 35 19 59 32 SSW 1007,4 10 0,0
10.12.2019 13:00:00 8,9 8,9 31 17 55 30 S 1008,5 10 -
10.12.2019 12:00:00 8,3 8,3 34 18 - - S 1010,8 10 0,0
10.12.2019 11:00:00 7,4 7,3 29 16 - - S 1011,8 10 -
10.12.2019 10:00:00 6,4 5,8 28 15 - - S 1014,9 10 -
10.12.2019 09:00:00 5,8 5,1 22 12 - - S 1016,3 10 -
10.12.2019 08:00:00 4,7 4,4 22 12 - - S 1017,3 10 -
10.12.2019 07:00:00 3,2 3,1 18 10 - - S 1018,6 10 -
10.12.2019 06:00:00 2,7 2,6 21 11 - - S 1020,0 10 -
10.12.2019 05:00:00 3,0 0,0 15 8 - - S - 10 -
10.12.2019 04:00:00 0,3 0,3 9 5 - - S 1022,0 10 -
10.12.2019 03:00:00 0,6 0,6 9 5 - - S 1022,7 10 -
10.12.2019 02:00:00 0,3 0,3 9 5 - - SSW 1022,7 10 -
10.12.2019 01:00:00 0,2 0,2 9 5 - - SSW - 10 -
10.12.2019 00:00:00 -0,3 -0,3 11 6 - - SW 1024,0 10 -
09.12.2019 23:00:00 -0,3 -0,4 13 7 - - WSW 1024,0 10 -
09.12.2019 22:00:00 0,3 0,2 8 4 - - WSW 1023,4 10 -
09.12.2019 21:00:00 0,2 -0,2 8 4 - - W 1023,0 10 -
09.12.2019 20:00:00 0,8 -0,5 9 5 - - WSW 1022,3 10 -
09.12.2019 19:00:00 1,6 -0,3 15 8 - - WNW 1021,3 10 -
09.12.2019 18:00:00 3,9 0,2 16 9 - - WNW 1020,0 10 -
09.12.2019 17:00:00 4,4 0,5 16 9 - - NW 1019,0 10 -
09.12.2019 16:00:00 5,4 0,8 18 10 - - NW 1017,6 10 -
09.12.2019 15:00:00 6,8 1,1 26 14 - - NW 1015,9 10 -
09.12.2019 14:00:00 7,6 1,4 26 14 50 27 NNW 1013,9 10 -
09.12.2019 13:00:00 8,0 1,0 26 14 55 30 NNW - 10 -
09.12.2019 12:00:00 7,7 1,7 34 18 59 32 NNW 1009,8 10 -
09.12.2019 11:00:00 7,5 1,8 41 22 61 33 NW 1007,4 10 -
09.12.2019 10:00:00 7,1 2,8 41 22 55 30 NW 1005,1 10 -
09.12.2019 09:00:00 7,1 3,7 35 19 57 31 NW 1002,4 10 -
09.12.2019 08:00:00 7,1 4,7 28 15 - - NW 1000,0 10 0,0
09.12.2019 07:00:00 6,7 6,3 31 17 - - NW 997,3 10 -
09.12.2019 06:00:00 6,2 6,2 21 11 - - WNW 994,9 10 -
09.12.2019 05:00:00 6,3 6,2 22 12 - - W 992,5 10 -
09.12.2019 04:00:00 5,5 5,5 22 12 - - W 991,2 10 -
09.12.2019 03:00:00 5,6 5,6 22 12 - - W 990,5 10 -
09.12.2019 02:00:00 5,4 5,3 21 11 - - WSW 989,5 10 -
09.12.2019 01:00:00 5,4 4,7 21 11 - - SW 989,1 10 -
09.12.2019 00:00:00 5,6 4,1 28 15 - - SW 989,5 10 -
08.12.2019 23:00:00 5,7 3,9 24 13 - - SW 990,5 10 -
08.12.2019 22:00:00 6,2 4,0 28 15 48 26 SW 991,5 10 -
08.12.2019 21:00:00 6,3 4,5 35 19 52 28 SW - 10 -
08.12.2019 20:00:00 6,3 4,6 35 19 54 29 SW - 10 -
08.12.2019 19:00:00 6,6 4,3 34 18 54 29 WSW - 10 -
08.12.2019 18:00:00 6,5 4,7 31 17 - - SW - 10 -
08.12.2019 17:00:00 7,0 4,3 22 12 54 29 WSW - 10 0,0
08.12.2019 16:00:00 8,3 5,1 31 17 50 27 SW - 10 -

tt = Température de l'air
td = dewpoint
ff = Vitesse du vent
fx = gusts
dd = Direction du vent
ppp = reduced air pressure
vv = visibility
rr = Quantités de précipitations

stations d'obs. à proximité